map of IAM home
IAM - Airport
Location
City:  In Aménas, Illizi, Algeria
Name:In Aménas Airport
Old (Alt.):Zarzaltine Airport
ICAO:DAUZ
IATA:IAM

Details
Type:Airport (Aerodrome, Airfield)
Latitude:28°03'05"N (28.051389)
Longitude:9°38'34"E (9.642778)
Elevation:1847 ft (563 m)
Variation:1.94°E (WMM2015v2 magnetic declination)
0.11° annual change
Runways:2
Longest:9843 × 148 ft (3000 × 45 m), paved

Time
Time Zone:UTC+1
Local Time:

Weather
METAR:DAUZ 041400Z 28016G26KT 5000 DRSA NSC 09/M02 Q1019
TAF:DAUZ 041100Z 0412/0512 28015KT 6000 NSC
TEMPO 0412/0418 32015G25KT 3000 DRSA FEW040TCU PROB30
TEMPO 0412/0415 32015G30KT 1500 BLSA

Related Locations
Nearby:
Farthest:EUA: 11892 mi / 19138 km
Eua [Kaufana], TO

Find:

   beyond  
but within

Other Information
Maps:
NOTAMs:
Links:
Sources:

  
  • flag of Algeria
  

Sectional Chart

Flight Planning
at skyvector.com

Satellite Image

Google Maps Satellite view

 

Copyright © 2004-2019 Karl L. Swartz. All rights reserved.
The Great Circle Mapper name and logo are trademarks of the Great Circle Mapper.
All other trademarks mentioned herein belong to their respective owners.
Please see credits for attibutions and further copyright information.

  Follow gcmap on Facebook Follow gcmap on Twitter GCmap on LinkedIn

hCard Microformat

Geo Microformat